Location: Unspecified
(43.4680°N, 87.1740°E)
Time: 20:23:48
(UTC+00:00)

MetOp-B - Pass Details

Date: 17 April 2021
Orbit: 818 x 822 km, 98.7° (Epoch: 12 May)

Event Time Altitude Azimuth Distance (km) Brightness Sun altitude
Exits shadow 15:09:02 40° 169° (S) 1,193 4.6 -21.9°
Maximum altitude 15:11:03 85° 256° (WSW) 830 4.1 -22.1°
Drops below altitude 10° 15:16:27 10° 345° (NNW) 2,427 7.4 -22.9°
Sets 15:18:48 0° 346° (NNW) 3,364 8.2 -23.2°
